Weather Roundup
Issued by NWS

Home | Current Version | Previous Version | Graphics & Text | Print | Product List | Glossary Off
Versions: 1 2 3 4 5 6 7 8 9 10 11 12 13 14 15 16 17 18 19 20 21 22 23 24 25 26 27 28 29 30 31 32 33 34 35 36 37 38 39 40 41 42 43 44 45 46 47 48 49 50

000
NZUS93 KARX 221010
HRRWXR

CURRENT HOURLY OBSERVATIONS ACROSS
MUCH OF THE UPPER MISSISSIPPI VALLEY
NATIONAL WEATHER SERVICE LA CROSSE WI
500 AM CDT SUN APR 22 2018


...SOUTHEAST MINNESOTA...


CITY           SKY/WX    TMP DP  RH WIND       PRES   REMARKS
ROCHESTER      MOCLDY    37  31  78 SE6       30.33R WCI  32
ROCHESTER/MAYO FAIR      37  31  79 CALM      30.33S
WINONA         FAIR      34  32  93 CALM      30.34R
AUSTIN         FAIR      37  30  75 CALM      30.32S
ALBERT LEA     FAIR      37  28  70 CALM      30.32S
DODGE CENTER   FAIR      36  32  87 SE6       30.33R WCI  31
PRESTON        CLOUDY    39  32  77 SE3       30.33S
OWATONNA       FAIR      34  30  86 SE3       30.32R
FARIBAULT      NOT AVBL
$$

...ELSEWHERE IN MINNESOTA...


CITY           SKY/WX    TMP DP  RH WIND       PRES   REMARKS
MINNEAPOLIS    FAIR      38  32  79 CALM      30.33S
INTNL FALLS    FAIR      37  24  59 CALM      30.29R
DULUTH         FAIR      35  20  54 CALM      30.32R
RED WING       FAIR      30  27  86 CALM      30.34R
REDWOOD FALLS  CLEAR     34  33  96 E3        30.30S
MANKATO        NOT AVBL
WORTHINGTON    PTCLDY    33  30  88 CALM      30.30R
FAIRMONT       CLOUDY    34  30  85 CALM      30.31S
$$

...SOUTHWEST WISCONSIN...


CITY           SKY/WX    TMP DP  RH WIND       PRES   REMARKS
LA CROSSE      MOCLDY    37  32  82 CALM      30.35R
PRAIRIE DU CHI FAIR      39  33  80 CALM      30.34S
BOSCOBEL       CLOUDY    39  35  86 CALM      30.35S
LONE ROCK      FAIR      37  35  92 CALM      30.36R
PLATTEVILLE    CLOUDY    43  31  62 E6        30.34S
FORT MC COY    FAIR      26  25  95 CALM      30.37R
CAMP DOUGLAS   FAIR      28  27  96 CALM      30.35R
MAUSTON-NEW LI FAIR      31  29  94 CALM      30.35R
VIROQUA        PTSUNNY   44  32  64 SE5       30.34S
WIS DELLS      FAIR      31  28  88 CALM      30.35R
$$

...ELSEWHERE IN WISCONSIN...


CITY           SKY/WX    TMP DP  RH WIND       PRES   REMARKS
MILWAUKEE      MOCLDY    36  22  56 CALM      30.36S
MADISON        FAIR      35  32  88 CALM      30.35R
GREEN BAY      FAIR      31  25  78 S3        30.38R
EAU CLAIRE     FAIR      30  27  88 CALM      30.34R
BLACK RVR FLS  FAIR      25  25 100 CALM      30.35R
MEDFORD        FAIR      27  24  89 NE3       30.33F
WAUSAU         FAIR      28  26  92 CALM      30.33F
WIS RAPIDS     FAIR      29  23  78 CALM      30.36S
MARSHFIELD     FAIR      33  27  78 CALM      30.33S
RICE LAKE      FAIR      27  26  94 CALM      30.35S
$$

...NORTHEAST IOWA...


CITY           SKY/WX    TMP DP  RH WIND       PRES   REMARKS
WATERLOO       FAIR      41  36  82 E7        30.30F
DUBUQUE        FAIR      43  30  60 NE6       30.33R
DECORAH        MOCLDY    41  34  75 E6        30.31F
MASON CITY     CLOUDY    38  34  85 N3        30.32S
CHARLES CITY   CLOUDY    43  36  75 E7        30.32S
OELWEIN        CLOUDY    43  37  81 E8        30.31F
$$

...ELSEWHERE IN IOWA...


CITY           SKY/WX    TMP DP  RH WIND       PRES   REMARKS
DES MOINES     CLOUDY    47  32  56 NE10      30.24F
IOWA CITY      FAIR      46  30  53 NE9       30.29F
FORT DODGE     CLOUDY    42  37  82 NE8       30.28F
MARSHALLTOWN   CLOUDY    41  35  79 E9        30.27F
CEDAR RAPIDS   FAIR      45  31  58 E13       30.28F
$$

...NORTHERN ILLINOIS...


CITY           SKY/WX    TMP DP  RH WIND       PRES   REMARKS
CHICAGO-OHARE  CLOUDY    44  20  38 E7        30.33F
CHICAGO-MIDWAY CLOUDY    45  23  42 E8        30.33F
MOLINE         FAIR      45  25  45 E10       30.28F
ROCKFORD       MOCLDY    43  20  39 E9        30.34S
PEORIA         FAIR      47  28  47 E15       30.27S
$$

NOTE: "FAIR" INDICATES FEW OR NO CLOUDS BELOW 12,000 FEET WITH NO
SIGNIFICANT WEATHER AND/OR OBSTRUCTIONS TO VISIBILITY. WIND
SPEEDS ARE IN MILES-PER-HOUR.




USA.gov is the U.S. government's official web portal to all federal, state and local government web resources and services.